Weather Roundup
Issued by NWS Chicago, IL

Home | Current Version | Previous Version | Graphics & Text | Print | Product List | Glossary On
Versions: 1 2 3 4 5 6 7 8 9 10 11 12 13 14 15 16 17 18 19 20 21 22 23 24 25 26 27 28 29 30 31 32 33 34 35 36 37 38 39 40 41 42 43 44 45 46 47 48 49 50
000
NZUS59 KLOT 251908
HRRLOT

CHICAGO AREA WEATHER ROUNDUP
NATIONAL WEATHER SERVICE CHICAGO/ROMEOVILLE IL
200 PM CDT SAT APR 25 2015

NOTE: "FAIR" INDICATES FEW OR NO CLOUDS BELOW 12,000 FEET WITH NO
SIGNIFICANT WEATHER AND/OR OBSTRUCTIONS TO VISIBILITY.

* THESE STATIONS ARE NOT UNDER NWS QUALITY CONTROL. THEY ALSO MAY NOT
  REPORT WEATHER SUCH AS PRECIPITATION OR FOG.

ILZ005-006-012>014-019>023-252000-
NORTHEAST ILLINOIS

CITY           SKY/WX    TMP DP  RH WIND       PRES   REMARKS
OHARE          LGT RAIN  44  40  85 NE14      29.77F FOG
MIDWAY         LGT RAIN  46  42  86 NE13      29.77F FOG
AURORA         LGT RAIN  46  41  82 NE22G29   29.72F
LANSING*       LGT RAIN  44  41  91 NE13      29.75F
JOLIET*        DRIZZLE   46  44  92 NE13G20   29.71F
WAUKEGAN       CLOUDY    42  38  85 NE10      29.81S
DUPAGE AIRPORT LGT RAIN  45  42  89 NE15      29.74F FOG
WHEELING       LGT RAIN  43  40  89 NE9       29.80F
KANKAKEE*      CLOUDY    46  44  94 NE20G26   29.68S
MORRIS*        LGT RAIN  46  43  90 E17G25    29.65F
LEWIS AIRPORT* LGT RAIN  44  42  93 E18G24    29.71F
NORTHERLY IS     N/A     43  39  86 NE14        N/A
$$

WIZ051-052-058>065-066-070>072-252000-
SOUTHEAST WISCONSIN

CITY           SKY/WX    TMP DP  RH WIND       PRES   REMARKS
MILWAUKEE      CLOUDY    40  30  67 NE16      29.86R
KENOSHA*       CLOUDY    43  37  79 NE13      29.83S
RACINE*        CLOUDY    41  33  73 NE10      29.86R
BURLINGTON     DRIZZLE   40  35  82 E13       29.82F
WAUKESHA       CLOUDY    41  32  70 NE13      29.84S
WEST BEND      CLOUDY    45  28  53 NE15G21   29.85R
$$

INZ001>003-010>013-019-020-252000-
NORTHWEST INDIANA

CITY           SKY/WX    TMP DP  RH WIND       PRES   REMARKS
GARY*          LGT RAIN  45  39  81 E9        29.79S FOG
MICHIGAN CITY* NOT AVBL
RENSSELAER*    NOT AVBL
VALPARAISO     LGT RAIN  45  42  89 E10       29.79F
$$

LMZ740>746-252000-
SOUTHERN LAKE MICHIGAN

STATION/POSITION TIME  SKY/WX   TEMP WIND        PRES    VSBY
                                AIR  DIR/SP/G
                 (UTC)          (F)  (DEG/KT/KT) (MB)    (MI)
HARRISON CRIB    1800            41   70/ 10/ 11   N/A
BURNHAM HARBOR   1900            43   60/ 11/ 13   N/A
CALUMET HARBOR   1800            43   50/  7/ 10   N/A
BURNS HARBOR     1800            45   20/  4/  7 1009.1R
MICHIGAN CITY    1800            45   80/ 10/ 14   N/A
$$

ABBREVIATIONS USED IN REMARKS
   TC - TEMPERATURE IN CELSIUS
  WCI - WIND CHILL INDEX
   HX - HEAT INDEX
  VSB - VISIBILITY
$$



USA.gov is the U.S. government's official web portal to all federal, state and local government web resources and services.